North Vernon, Indiana, United States (47265)
Lat: 39.01N, Lon: 85.62W
Wx Zone: INZ072
Local Info
Past Weather Observations for Tuesday, February 9, 2016

NOTE: This archive is for the closest National Weather Service station to North Vernon. Information may differ from the station used for current weather conditions.

Click here for Long-term Archive

Time Weather Temperature Dewpoint Humidity Pressure Winds Precip Visibility
23:53
Overcast
16°F / -9°C 9°F / -13°C 73% 29.95 in
(1014 mb)
W 11.5 mph
(W 19 kph)
- 10SM
22:53
Partly Cloudy
16°F / -9°C 7°F / -14°C 67% 29.95 in
(1014 mb)
WNW 13.8 mph
(WNW 22 kph)
- 10SM
22:01
Overcast
18°F / -8°C 9°F / -13°C 68% 29.95 in
(1014 mb)
WNW 10.4 mph
(WNW 17 kph)
- 9SM
21:53
Overcast
18°F / -8°C 10°F / -12°C 73% 29.95 in
(1014 mb)
W 11.5 mph
(W 19 kph)
0.00 in
(0.00 mm)
9SM
21:48
Overcast
Light Snow
18°F / -8°C 10°F / -12°C 73% 29.95 in
(1014 mb)
W 11.5 mph
(W 19 kph)
0.00 in
(0.00 mm)
5SM
21:40
Overcast
Light Snow
18°F / -8°C 12°F / -11°C 79% 29.95 in
(1014 mb)
WNW 12.7 mph
(WNW 20 kph)
0.00 in
(0.00 mm)
2SM
21:33
Overcast
Light Snow
18°F / -8°C 12°F / -11°C 79% 29.95 in
(1014 mb)
WNW 9.2 mph
(WNW 15 kph)
0.00 in
(0.00 mm)
1 1/4SM
21:25
Overcast
Light Snow
18°F / -8°C 12°F / -11°C 79% 29.95 in
(1014 mb)
W 11.5 mph
(W 19 kph)
0.00 in
(0.00 mm)
2SM
20:53
Overcast
18°F / -8°C 10°F / -12°C 73% 29.95 in
(1014 mb)
W 13.8 mph
(W 22 kph)
0.00 in
(0.00 mm)
10SM
19:53
Overcast
19°F / -7°C 10°F / -12°C 68% 29.92 in
(1013 mb)
WNW 13.8 mph
(WNW 22 kph)
0.00 in
(0.00 mm)
9SM
19:40
Overcast
Light Snow
19°F / -7°C 12°F / -11°C 73% 29.92 in
(1013 mb)
WNW 15 mph
(WNW 24 kph)
0.00 in
(0.00 mm)
3SM
19:20
Overcast
Light Snow
19°F / -7°C 16°F / -9°C 86% 29.92 in
(1013 mb)
WNW 16.1 mph
(WNW 26 kph)
0.00 in
(0.00 mm)
1 1/4SM
19:00
Overcast
Light Snow
19°F / -7°C 12°F / -11°C 73% 29.92 in
(1013 mb)
WNW 15 mph
(WNW 24 kph)
0.00 in
(0.00 mm)
2 1/2SM
18:53
Overcast
19°F / -7°C 12°F / -11°C 73% 29.92 in
(1013 mb)
NW 15 mph
(NW 24 kph)
0.00 in
(0.00 mm)
9SM
18:15
Overcast
21°F / -6°C 14°F / -10°C 74% 29.89 in
(1012 mb)
WNW 13.8 mph
(WNW 22 kph)
0.00 in
(0.00 mm)
8SM
18:02
Overcast
Light Snow
21°F / -6°C 16°F / -9°C 80% 29.89 in
(1012 mb)
W 15 mph
(W 24 kph)
0.00 in
(0.00 mm)
3SM
17:53
Overcast
Light Snow
21°F / -6°C 16°F / -9°C 80% 29.89 in
(1012 mb)
WNW 16.1 mph
(WNW 26 kph)
0.00 in
(0.00 mm)
1 1/4SM
17:34
Overcast
Light Snow
21°F / -6°C 16°F / -9°C 80% 29.89 in
(1012 mb)
W 13.8 mph
(W 22 kph)
0.00 in
(0.00 mm)
1 3/4SM
17:21
Overcast
Light Snow
21°F / -6°C 16°F / -9°C 80% 29.86 in
(1011 mb)
W 12.7 mph
(W 20 kph)
0.00 in
(0.00 mm)
2 1/2SM
16:53
Overcast
Light Snow
23°F / -5°C 16°F / -9°C 74% 29.86 in
(1011 mb)
W 15 mph
(W 24 kph)
0.00 in
(0.00 mm)
5SM
15:53
Overcast
25°F / -4°C 16°F / -9°C 69% 29.8 in
(1009 mb)
W 13.8 mph
(W 22 kph)
0.00 in
(0.00 mm)
10SM
14:53
Overcast
Light Snow
25°F / -4°C 16°F / -9°C 69% 29.8 in
(1009 mb)
W 17.3 mph
(W 28 kph)
0.00 in
(0.00 mm)
6SM
13:53
Overcast
Light Snow
25°F / -4°C 18°F / -8°C 74% 29.77 in
(1008 mb)
SSW 15 mph
(SSW 24 kph)
0.00 in
(0.00 mm)
3SM
12:53
Overcast
25°F / -4°C 16°F / -9°C 69% 29.77 in
(1008 mb)
W 13.8 mph
(W 22 kph)
0.00 in
(0.00 mm)
9SM
11:53
Overcast
Light Snow
23°F / -5°C 16°F / -9°C 74% 29.8 in
(1009 mb)
W 12.7 mph
(W 20 kph)
0.00 in
(0.00 mm)
3SM
11:51
Overcast
Light Snow
23°F / -5°C 16°F / -9°C 74% 29.8 in
(1009 mb)
W 13.8 mph
(W 22 kph)
0.00 in
(0.00 mm)
3SM
11:44
Overcast
Light Snow
23°F / -5°C 16°F / -9°C 74% 29.8 in
(1009 mb)
SSW 13.8 mph
(SSW 22 kph)
0.00 in
(0.00 mm)
2 1/2SM
10:53
Overcast
Light Snow
21°F / -6°C 16°F / -9°C 80% 29.77 in
(1008 mb)
W 16.1 mph
(W 26 kph)
0.00 in
(0.00 mm)
1 1/2SM
09:53
Overcast
Light Snow
21°F / -6°C 16°F / -9°C 80% 29.77 in
(1008 mb)
W 16.1 mph
(W 26 kph)
0.00 in
(0.00 mm)
2 1/2SM
09:34
Overcast
Light Snow
21°F / -6°C 16°F / -9°C 80% 29.77 in
(1008 mb)
W 15 mph
(W 24 kph)
0.00 in
(0.00 mm)
4SM
09:23
Overcast
Light Snow
21°F / -6°C 16°F / -9°C 80% 29.77 in
(1008 mb)
W 16.1 mph
(W 26 kph)
0.00 in
(0.00 mm)
5SM
08:53
Overcast
Light Snow
21°F / -6°C 16°F / -9°C 80% 29.77 in
(1008 mb)
W 15 mph
(W 24 kph)
0.00 in
(0.00 mm)
5SM
07:53
Overcast
Light Snow
21°F / -6°C 18°F / -8°C 86% 29.74 in
(1007 mb)
W 12.7 mph
(W 20 kph)
0.00 in
(0.00 mm)
3SM
07:48
Overcast
Light Snow
21°F / -6°C 18°F / -8°C 86% 29.74 in
(1007 mb)
W 12.7 mph
(W 20 kph)
0.00 in
(0.00 mm)
3SM
07:41
Overcast
Light Snow
21°F / -6°C 18°F / -8°C 86% 29.74 in
(1007 mb)
W 12.7 mph
(W 20 kph)
0.00 in
(0.00 mm)
1 1/2SM
07:30
Overcast
Light Snow
21°F / -6°C 18°F / -8°C 86% 29.74 in
(1007 mb)
W 12.7 mph
(W 20 kph)
0.00 in
(0.00 mm)
2 1/2SM
06:53
Overcast
Light Snow
21°F / -6°C 18°F / -8°C 86% 29.74 in
(1007 mb)
SSW 13.8 mph
(SSW 22 kph)
0.00 in
(0.00 mm)
4SM
05:53
Overcast
Light Snow
21°F / -6°C 18°F / -8°C 86% 29.74 in
(1007 mb)
W 15 mph
(W 24 kph)
0.00 in
(0.00 mm)
3SM
05:35
Overcast
Light Snow
21°F / -6°C 18°F / -8°C 86% 29.71 in
(1006 mb)
SSW 13.8 mph
(SSW 22 kph)
0.00 in
(0.00 mm)
2SM
05:25
Overcast
Light Snow
21°F / -6°C 18°F / -8°C 86% 29.71 in
(1006 mb)
W 15 mph
(W 24 kph)
0.00 in
(0.00 mm)
2SM
05:12
Overcast
Light Snow
21°F / -6°C 18°F / -8°C 86% 29.71 in
(1006 mb)
W 15 mph
(W 24 kph)
0.00 in
(0.00 mm)
1 3/4SM
04:53
Overcast
Light Snow
21°F / -6°C 18°F / -8°C 86% 29.71 in
(1006 mb)
W 12.7 mph
(W 20 kph)
0.00 in
(0.00 mm)
2SM
04:39
Overcast
Light Snow
21°F / -6°C 18°F / -8°C 86% 29.71 in
(1006 mb)
W 11.5 mph
(W 19 kph)
0.00 in
(0.00 mm)
2SM
04:24
Overcast
Light Snow
21°F / -6°C 18°F / -8°C 86% 29.71 in
(1006 mb)
SSW 13.8 mph
(SSW 22 kph)
0.00 in
(0.00 mm)
1 3/4SM
03:53
Overcast
Light Snow
21°F / -6°C 18°F / -8°C 86% 29.71 in
(1006 mb)
W 12.7 mph
(W 20 kph)
0.00 in
(0.00 mm)
2SM
03:37
Overcast
Light Snow
21°F / -6°C 18°F / -8°C 86% 29.71 in
(1006 mb)
W 16.1 mph
(W 26 kph)
0.00 in
(0.00 mm)
2 1/2SM
02:53
Overcast
Light Snow
23°F / -5°C 18°F / -8°C 80% 29.71 in
(1006 mb)
SSW 13.8 mph
(SSW 22 kph)
0.00 in
(0.00 mm)
5SM
02:38
Overcast
Light Snow
23°F / -5°C 18°F / -8°C 80% 29.71 in
(1006 mb)
SSW 12.7 mph
(SSW 20 kph)
0.00 in
(0.00 mm)
3SM
02:18
Overcast
Light Snow
23°F / -5°C 18°F / -8°C 80% 29.71 in
(1006 mb)
W 13.8 mph
(W 22 kph)
0.00 in
(0.00 mm)
2 1/2SM
01:53
Overcast
Light Snow
23°F / -5°C 18°F / -8°C 80% 29.71 in
(1006 mb)
W 11.5 mph
(W 19 kph)
0.00 in
(0.00 mm)
6SM
01:25
Overcast
Light Snow
23°F / -5°C 18°F / -8°C 80% 29.74 in
(1007 mb)
SSW 13.8 mph
(SSW 22 kph)
0.00 in
(0.00 mm)
3SM
01:08
Overcast
Light Snow
23°F / -5°C 18°F / -8°C 80% 29.74 in
(1007 mb)
W 15 mph
(W 24 kph)
0.00 in
(0.00 mm)
1 3/4SM
00:53
Overcast
23°F / -5°C 18°F / -8°C 80% 29.74 in
(1007 mb)
W 15 mph
(W 24 kph)
- 10SM
Time Weather Temperature Dewpoint Humidity Pressure Winds Precip Visibility


Weather for websites

WeatherForYou.com, LLC is not responsible for any damages or problems caused by this service. Current weather conditions are obtained from the closest station including government and personal stations which may have varying degrees of accuracy. Weather forecasts are derived from the NOAA NDFD. Like all things, this site belongs to Jesus Christ... He just trusts us to maintain it. If you have any questions or comments email webmaster@weatherforyou.com

Copyright © 2016, WeatherForYou.com LLC. All rights reserved.